Location: Palo Alto
(37.4420°N, 122.1420°W)
Time: 13:58:23
(UTC-07:00)

ARGOS - Visible Passes

Search period start: 27 August 2014 00:00
Search period end: 06 September 2014 00:00
Orbit: 821 x 835 km, 98.8° (Epoch: 27 August)

Date Brightness Start Highest point End Pass type
(mag) Time Alt. Az. Time Alt. Az. Time Alt. Az.
27 Aug 5.6 00:01:52 15° WNW 00:01:52 15° WNW 00:03:29 10° NW visible
27 Aug 4.0 22:01:47 35° NE 22:01:47 35° NE 22:06:04 10° N visible
27 Aug 5.2 23:43:19 21° WNW 23:43:19 21° WNW 23:45:53 10° NW visible
28 Aug 4.4 21:43:15 25° ENE 21:43:15 25° ENE 21:47:14 10° NNE visible
28 Aug 4.8 23:24:47 29° WNW 23:24:47 29° WNW 23:27:55 10° NNW visible
29 Aug 4.8 21:24:43 18° ENE 21:24:43 18° ENE 21:28:09 10° NNE visible
29 Aug 4.4 23:06:15 39° NW 23:06:15 39° NW 23:09:45 10° NNW visible
30 Aug 5.1 21:06:11 12° ENE 21:06:33 12° ENE 21:08:26 10° NE visible
30 Aug 4.0 22:47:43 45° NNW 22:47:43 45° NNW 22:51:25 10° NNW visible
31 Aug 3.9 22:29:11 44° NNE 22:29:11 44° NNE 22:32:58 10° N visible
01 Sep 5.9 00:10:43 11° WNW 00:10:43 11° WNW 00:11:06 10° WNW visible
01 Sep 4.1 22:10:39 36° NE 22:10:39 36° NE 22:14:22 10° N visible
01 Sep 5.6 23:52:11 16° WNW 23:52:11 16° WNW 23:53:46 10° NW visible
02 Sep 4.4 21:52:07 27° NE 21:52:07 27° NE 21:55:38 10° N visible
02 Sep 5.3 23:33:39 22° NW 23:33:39 22° NW 23:35:56 10° NW visible
03 Sep 4.7 21:33:35 20° NE 21:33:35 20° NE 21:36:41 10° NNE visible
03 Sep 4.9 23:15:07 28° NW 23:15:07 28° NW 23:17:51 10° NNW visible
04 Sep 5.0 21:15:03 14° NE 21:15:03 14° NE 21:17:20 10° NNE visible
04 Sep 4.6 22:56:35 34° NNW 22:56:35 34° NNW 22:59:35 10° NNW visible
05 Sep 4.4 22:38:03 36° N 22:38:03 36° N 22:41:11 10° N visible
